Terminal Aerodrome Forecast
Issued by NWS

Home | Current Version | Previous Version | Text Only | Print | Product List | Glossary On
Versions: 1 2 3 4 5 6 7 8 9 10 11 12 13 14 15
837
FTUS43 KPAH 290704 AAA
TAFCGI
TAF AMD
KCGI 290704Z 2907/3006 09001KT 4SM BR SKC
      TEMPO 2907/2911 1SM BR VV001
     FM291100 00000KT P6SM BCFG SKC
     FM291330 06007KT P6SM SCT040
     FM300000 08002KT P6SM BKN300=

USA.gov is the U.S. government's official web portal to all federal, state and local government web resources and services.